• Processing (Info)

  • MPEC 2014-Q12 : 2014 PC68

    The following Minor Planet Electronic Circular may be linked-to from your own Web pages, but must not otherwise be redistributed electronically.

    A form allowing access to any MPEC is at the bottom of this page.


    Read MPEC 2014-Q11 Read MPEC 2014-Q13


    M.P.E.C. 2014-Q12                                Issued 2014 Aug. 20, 14:04 UT
    
         The Minor Planet Electronic Circulars contain information on unusual
             minor planets and routine data on comets.  They are published
       on behalf of Commission 20 of the International Astronomical Union by the
              Minor Planet Center, Smithsonian Astrophysical Observatory,
                              Cambridge, MA 02138, U.S.A.
    
                 Prepared using the Tamkin Foundation Computer Network
    
                                  MPC@CFA.HARVARD.EDU
                URL https://www.minorplanetcenter.net/    ISSN 1523-6714
    
                                       2014 PC68
    
    Observations:
         K14P68C* S2014 08 08.37964 02 28 17.41 +27 50 12.4          19   RLEQ012C51
         K14P68C  s2014 08 08.37964 1 + 3351.3676 + 4805.4551 + 3605.7131   EQ012C51
         K14P68C  S2014 08 08.44548 02 28 32.54 +27 44 49.7                LEQ012C51
         K14P68C  s2014 08 08.44548 1 + 3359.4522 + 4820.2086 + 3578.5131   EQ012C51
         K14P68C  S2014 08 08.51118 02 28 47.64 +27 39 28.0                LEQ012C51
         K14P68C  s2014 08 08.51118 1 + 3332.2874 + 4806.5983 + 3621.8104   EQ012C51
         K14P68C  S2014 08 08.57702 02 29 02.80 +27 34 03.9                LEQ012C51
         K14P68C  s2014 08 08.57702 1 + 3340.4015 + 4821.4344 + 3594.6340   EQ012C51
         K14P68C  S2014 08 08.64285 02 29 17.92 +27 28 39.4                LEQ012C51
         K14P68C  s2014 08 08.64285 1 + 3348.4087 + 4836.1866 + 3567.3944   EQ012C51
         K14P68C  S2014 08 08.70868 02 29 33.02 +27 23 14.2                LEQ012C51
         K14P68C  s2014 08 08.70868 1 + 3356.3300 + 4850.8702 + 3540.0319   EQ012C51
         K14P68C  S2014 08 08.84022 02 30 03.16 +27 12 21.9                LEQ012C51
         K14P68C  s2014 08 08.84022 1 + 3337.3532 + 4852.1845 + 3556.1107   EQ012C51
         K14P68C  S2014 08 08.97176 02 30 33.31 +27 01 27.0                LEQ012C51
         K14P68C  s2014 08 08.97176 1 + 3318.4003 + 4853.4309 + 3572.0857   EQ012C51
         K14P68C  S2014 08 08.97189 02 30 33.39 +27 01 25.6                LEQ012C51
         K14P68C  s2014 08 08.97189 1 + 3352.9672 + 4881.4852 + 3501.1536   EQ012C51
         K14P68C %C2014 08 12.50199102 43 52.70 +21 50 20.0          20.4 RtEQ012F65
         K14P68C %C2014 08 12.50391302 43 53.11 +21 50 09.2          20.4 RtEQ012F65
         K14P68C %C2014 08 12.50583602 43 53.53 +21 49 58.8          20.4 RtEQ012F65
         K14P68C %C2014 08 12.56489102 44 06.27 +21 44 30.8          20.2 RtEQ012F65
         K14P68C %C2014 08 12.56681402 44 06.71 +21 44 19.8          20.7 RtEQ012F65
         K14P68C %C2014 08 12.56809502 44 06.96 +21 44 12.8          20.2 RtEQ012F65
         K14P68C KC2014 08 14.35766 02 50 42.28 +18 53 03.1          20.0 RoEQ012291
         K14P68C KC2014 08 14.35888 02 50 42.57 +18 52 56.4          20.3 RoEQ012291
         K14P68C KC2014 08 14.36009 02 50 42.84 +18 52 48.1          20.3 RoEQ012291
         K14P68C KC2014 08 20.39845 03 12 00.53 +08 20 37.1          20.4 RoEQ012291
         K14P68C KC2014 08 20.39932 03 12 00.71 +08 20 31.4          20.7 RoEQ012291
         K14P68C KC2014 08 20.40021 03 12 00.87 +08 20 25.7          20.6 RoEQ012291
    
    Observer details:
    291 LPL/Spacewatch II.  Observers T. H. Bressi, R. A. Mastaler.  1.8-m f/2.7
        reflector + CCD.
    C51 WISE.  Measurers A. K. Mainzer, J. M. Bauer, T. Grav, J. R. Masiero,
        J. W. Dailey, R. M. Cutri, E. L. Wright, C. Nugent, S. Sonnett,
        R. Stevenson.
    F65 Haleakala-Faulkes Telescope North.  Observer T. Lister.  2.0-m f/10
        Ritchey-Chretien + CCD.
    
    Orbital elements:
    2014 PC68                                                Earth MOID = 0.1047 AU
    Epoch 2014 Dec. 9.0 TT = JDT 2457000.5                  MPC
    M  75.24914              (2000.0)            P               Q
    n   0.52514524     Peri.  152.86976     +0.73584917     +0.64524160
    a   1.5215390      Node   161.64525     -0.67643891     +0.68659431
    e   0.2858888      Incl.   40.71316     +0.03092586     -0.33503960
    P   1.88           H   20.4           G   0.15           U   7
    Residuals in seconds of arc
    140808 C51  0.1-  0.7+    140808 C51  0.4-  0.0     140812 F65  0.3-  0.0
    140808 C51  0.3-  0.2+    140808 C51  0.3+  1.0-    140814 291  0.5-  0.3+
    140808 C51  0.3-  1.0+    140812 F65  0.5-  0.2+    140814 291  0.1-  0.7+
    140808 C51  0.1+  0.5+    140812 F65  0.6-  0.1+    140814 291  0.0   0.5-
    140808 C51  0.1+  0.4+    140812 F65  0.5-  0.3+    140820 291  0.2-  0.1+
    140808 C51  0.0   0.2+    140812 F65  0.4-  0.2+    140820 291  0.1-  0.1+
    140808 C51  0.5-  0.0     140812 F65  0.0   0.1-    140820 291  0.3-  0.3+
    
    Ephemeris:
    2014 PC68                a,e,i = 1.52, 0.29, 41                  q = 1.0865
    Date    TT    R. A. (2000) Decl.     Delta      r     Elong.  Phase     V
    2014 07 21    01 14 36.6 +45 31 31   0.5272  1.0867    83.1    68.1    21.6
    ...
    2014 08 05    02 15 11.5 +32 09 29   0.4202  1.0971    89.9    67.6    21.1
    ...
    2014 08 13    02 45 41.9 +21 03 48   0.3771  1.1089    94.6    65.6    20.8
    ...
    2014 08 19    03 07 11.5 +10 53 43   0.3566  1.1204    98.3    63.4    20.7
    2014 08 20    03 10 37.9 +09 04 45   0.3544  1.1226    98.9    63.0    20.6
    2014 08 21    03 14 01.5 +07 14 14   0.3526  1.1248    99.4    62.5    20.6
    ...
    2014 08 27    03 33 21.7 -04 06 45   0.3499  1.1390   102.6    60.0    20.6
    ...
    2014 09 04    03 56 03.8 -18 44 50   0.3680  1.1609   105.2    57.0    20.6
    ...
    2014 09 19    04 27 28.6 -39 51 11   0.4531  1.2092   105.8    53.1    21.0
    
    A. U. Tomatic                (C) Copyright 2014 MPC           M.P.E.C. 2014-Q12
    

    Read MPEC 2014-Q11 Read MPEC 2014-Q13


    MPEC number:

    Enter an MPEC number in one of the following forms:

    • 1997-B01 (the full form)
    • J97B01 (the packed version of the full form)
    • B01 (the abbreviated form)